Location: Voyageurs National Park
(48.5020°N, 92.9292°W)
Time: 21:25:12
(UTC-06:00)

Okean-O - Pass Details

Date: 19 January 2018
Orbit: 639 x 641 km, 98.2° (Epoch: 17 February)

Event Time Altitude Azimuth Distance (km) Brightness Sun altitude
Rises 05:29:43 0° 15° (NNE) 2,958 6.2 -23.7°
Reaches altitude 10° 05:31:56 10° 17° (NNE) 2,043 5.3 -23.3°
Maximum altitude 05:36:24 77° 104° (ESE) 663 2.7 -22.6°
Drops below altitude 10° 05:40:49 10° 190° (S) 2,026 5.2 -21.8°
Sets 05:43:00 0° 192° (SSW) 2,930 6.0 -21.5°
